W1MJC Weather Reports


Display with metric or nautical units.
time (UTC)temp
F
wind
direction
speed
MPH
gust
MPH
rain 1hr
in
rain 24hr
in
rain mn
in
humidity
%
barometer
mb
20260509000528 61 270 3.0 3.0 0.00 0.00 0.00 31 1003.7
20260508235525 61 280 4.0 5.0 0.00 0.00 0.00 29 1003.6
20260508234524 62 276 4.0 5.0 0.00 0.00 0.00 28 1003.4
20260508233516 62 275 3.0 4.0 0.00 0.00 0.00 30 1003.3
20260508232520 63 238 3.0 5.0 0.00 0.00 0.00 29 1003.4
20260508231518 63 268 4.0 5.0 0.00 0.00 0.00 30 1003.3
20260508230516 64 274 2.0 4.0 0.00 0.00 0.00 30 1003.4
20260508225532 64 272 3.0 5.0 0.00 0.00 0.00 28 1003.3
20260508224530 64 253 4.0 6.0 0.00 0.00 0.00 28 1003.3
20260508223556 65 261 4.0 5.0 0.00 0.00 0.00 30 1003.4
20260508222519 65 266 3.0 5.0 0.00 0.00 0.00 32 1003.4
20260508221523 64 266 4.0 5.0 0.00 0.00 0.00 31 1003.4
20260508220527 65 274 4.0 5.0 0.00 0.00 0.00 32 1003.4
20260508215531 67 203 3.0 6.0 0.00 0.00 0.00 38 1003.5
20260508214537 67 230 5.0 8.0 0.00 0.00 0.00 36 1003.5
20260508213522 70 302 2.0 5.0 0.00 0.00 0.00 32 1003.5
20260508212525 69 225 4.0 6.0 0.00 0.00 0.00 32 1003.7
20260508211529 70 281 3.0 4.0 0.00 0.00 0.00 30 1003.7
20260508210533 71 247 3.0 5.0 0.00 0.00 0.00 30 1003.9
20260508205519 73 203 4.0 7.0 0.00 0.00 0.00 31 1003.9
20260508204522 72 212 3.0 5.0 0.00 0.00 0.00 32 1004.0
20260508203528 69 273 4.0 6.0 0.00 0.00 0.00 31 1004.1
20260508202529 68 256 4.0 6.0 0.00 0.00 0.00 29 1004.0
20260508201533 70 243 4.0 7.0 0.00 0.00 0.00 32 1004.5
20260508200517 68 252 4.0 7.0 0.00 0.00 0.00 32 1004.6
20260508195521 69 224 4.0 7.0 0.00 0.00 0.00 30 1004.8
20260508194526 68 264 4.0 5.0 0.00 0.00 0.00 32 1004.9
20260508193530 68 275 3.0 6.0 0.00 0.00 0.00 32 1005.0
20260508192515 70 285 2.0 3.0 0.00 0.00 0.00 33 1005.4
20260508191520 67 262 5.0 11.0 0.00 0.00 0.00 34 1005.5
20260508190541 65 271 4.0 6.0 0.00 0.00 0.00 35 1005.7
20260508185519 68 248 4.0 6.0 0.00 0.00 0.00 34 1005.8
20260508184517 67 270 4.0 7.0 0.00 0.00 0.00 33 1005.9
20260508183533 67 230 4.0 7.0 0.00 0.00 0.00 34 1006.0
20260508182519 65 263 3.0 4.0 0.00 0.00 0.00 34 1006.1
20260508181523 65 274 4.0 7.0 0.00 0.00 0.00 35 1006.3
20260508180527 68 250 2.0 5.0 0.00 0.00 0.00 32 1006.5
20260508175530 66 217 3.0 7.0 0.00 0.00 0.00 34 1006.6
20260508174518 65 255 4.0 5.0 0.00 0.00 0.00 35 1006.7
20260508173521 66 248 4.0 7.0 0.00 0.00 0.00 33 1006.8
20260508172526 63 248 3.0 5.0 0.00 0.00 0.00 34 1007.1
20260508171529 65 272 5.0 6.0 0.00 0.00 0.00 33 1007.3
20260508170533 64 256 3.0 7.0 0.00 0.00 0.00 33 1007.5
20260508165539 63 244 3.0 7.0 0.00 0.00 0.00 36 1007.6
20260508164523 62 272 3.0 6.0 0.00 0.00 0.00 38 1007.7
20260508163527 61 274 4.0 6.0 0.00 0.00 0.00 37 1008.0
20260508162530 61 280 4.0 5.0 0.00 0.00 0.00 37 1008.0
20260508161516 63 272 3.0 5.0 0.00 0.00 0.00 39 1008.1
20260508160520 60 277 4.0 5.0 0.00 0.00 0.00 37 1008.1
20260508155526 61 248 4.0 5.0 0.00 0.00 0.00 39 1008.4
20260508154528 62 255 3.0 6.0 0.00 0.00 0.00 40 1008.4
20260508153532 65 159 3.0 6.0 0.00 0.00 0.00 41 1008.3
20260508152518 62 190 4.0 7.0 0.00 0.00 0.00 43 1008.4
20260508151542 62 196 2.0 5.0 0.00 0.00 0.00 43 1008.6
20260508150526 61 236 3.0 5.0 0.00 0.00 0.00 43 1008.7
20260508145530 64 193 3.0 5.0 0.00 0.00 0.00 42 1008.8
20260508144536 63 188 3.0 7.0 0.00 0.00 0.00 42 1008.8
20260508143520 64 142 2.0 4.0 0.00 0.00 0.00 43 1008.9
20260508142524 59 188 3.0 5.0 0.00 0.00 0.00 47 1009.1
20260508141522 58 208 2.0 5.0 0.00 0.00 0.00 52 1009.0
20260508140519 59 195 2.0 5.0 0.00 0.00 0.00 50 1009.3
20260508135518 58 210 3.0 5.0 0.00 0.00 0.00 53 1009.3
20260508134515 60 150 1.0 3.0 0.00 0.00 0.00 52 1009.3
20260508133526 59 147 3.0 4.0 0.00 0.00 0.00 55 1009.3
20260508132529 58 122 3.0 5.0 0.00 0.00 0.00 56 1009.4
20260508131515 57 126 3.0 5.0 0.00 0.00 0.00 56 1009.4
20260508130519 56 121 4.0 5.0 0.00 0.00 0.00 60 1009.4
20260508125523 55 137 3.0 5.0 0.00 0.00 0.00 64 1009.3
20260508124527 55 153 3.0 4.0 0.00 0.00 0.00 65 1009.2
20260508123531 54 130 1.0 3.0 0.00 0.00 0.00 66 1009.2
20260508122517 52 150 1.0 2.0 0.00 0.00 0.00 70 1009.0
20260508121521 49 0.0 0.0 0.00 0.00 0.00 76 1009.0
20260508120524 47 0.0 0.0 0.00 0.00 0.00 84 1009.0
20260508115528 47 0.0 0.0 0.00 0.00 0.00 81 1008.9
20260508114532 45 0.0 0.0 0.00 0.00 0.00 88 1008.8
20260508113518 42 0.0 0.0 0.00 0.00 0.00 89 1008.8
20260508112521 41 0.0 0.0 0.00 0.00 0.00 95 1008.5
20260508111525 39 0.0 0.0 0.00 0.00 0.00 99 1008.4
20260508110530 36 0.0 0.0 0.00 0.00 0.00 99 1008.3
20260508105515 35 0.0 0.0 0.00 0.00 0.00 99 1008.3
20260508104519 34 0.0 0.0 0.00 0.00 0.00 99 1008.2
20260508103543 33 0.0 0.0 0.00 0.00 0.00 99 1008.1
20260508102527 34 0.0 0.0 0.00 0.00 0.00 99 1008.3
20260508101531 34 0.0 0.0 0.00 0.00 0.00 99 1008.2
20260508100518 34 0.0 0.0 0.00 0.00 0.00 99 1008.2
20260508095521 35 0.0 0.0 0.00 0.00 0.00 99 1008.3
20260508094523 35 0.0 0.0 0.00 0.00 0.00 99 1008.2
20260508093521 35 0.0 0.0 0.00 0.00 0.00 99 1008.2
20260508092539 35 0.0 0.0 0.00 0.00 0.00 98 1008.3
20260508091517 35 0.0 0.0 0.00 0.00 0.00 97 1008.3
20260508090521 36 0.0 0.0 0.00 0.00 0.00 98 1008.3
20260508085524 36 0.0 0.0 0.00 0.00 0.00 97 1008.2
20260508084528 37 0.0 0.0 0.00 0.00 0.00 97 1008.3
20260508083553 37 0.0 0.0 0.00 0.00 0.00 97 1008.3
20260508082518 38 0.0 0.0 0.00 0.00 0.00 98 1008.3
20260508081522 38 0.0 0.0 0.00 0.00 0.00 98 1008.4
20260508080526 39 0.0 0.0 0.00 0.00 0.00 97 1008.6
20260508075530 39 0.0 0.0 0.00 0.00 0.00 97 1008.6
20260508074516 39 0.0 0.0 0.00 0.00 0.00 96 1008.5
20260508073520 39 255 1.0 2.0 0.00 0.00 0.00 96 1008.5
20260508072524 40 206 2.0 3.0 0.00 0.00 0.00 95 1008.4
20260508071528 40 0.0 0.0 0.00 0.00 0.00 94 1008.6
20260508070531 40 0.0 0.0 0.00 0.00 0.00 94 1008.7
20260508065518 41 248 0.0 1.0 0.00 0.00 0.00 91 1008.7
20260508064521 41 0.0 0.0 0.00 0.00 0.00 91 1008.8
20260508063525 42 0.0 0.0 0.00 0.00 0.00 90 1008.9
20260508062529 42 0.0 0.0 0.00 0.00 0.00 87 1008.8
20260508061533 43 0.0 0.0 0.00 0.00 0.00 86 1008.8
20260508060519 43 0.0 0.0 0.00 0.00 0.00 87 1008.9
20260508055523 43 0.0 0.0 0.00 0.00 0.00 93 1008.9
20260508054527 43 0.0 0.0 0.00 0.00 0.00 92 1008.9
20260508053531 43 0.0 0.0 0.00 0.00 0.00 93 1008.9
20260508052516 43 0.0 0.0 0.00 0.00 0.00 93 1008.8
20260508051520 43 0.0 0.0 0.00 0.00 0.00 89 1009.0
20260508050524 43 0.0 0.0 0.00 0.00 0.00 87 1009.0
20260508045522 43 0.0 0.0 0.00 0.00 0.00 88 1008.8
20260508044540 43 0.0 0.0 0.00 0.00 0.00 85 1008.6
20260508043518 44 0.0 0.0 0.00 0.00 0.00 84 1008.5
20260508042516 45 0.0 0.0 0.00 0.00 0.00 84 1008.5
20260508041526 45 0.0 0.0 0.00 0.00 0.00 84 1008.7
20260508040550 45 270 0.0 2.0 0.00 0.00 0.00 83 1008.5
20260508035516 46 0.0 0.0 0.00 0.00 0.00 80 1008.5
20260508034520 46 0.0 0.0 0.00 0.00 0.00 83 1008.5
20260508033524 47 0.0 0.0 0.00 0.00 0.00 78 1008.6
20260508032528 47 187 0.0 2.0 0.00 0.00 0.00 75 1008.6
20260508031532 47 0.0 0.0 0.00 0.00 0.00 77 1008.6
20260508030518 47 0.0 0.0 0.00 0.00 0.00 79 1008.8
20260508025542 48 0.0 0.0 0.00 0.00 0.00 75 1008.8
20260508024526 48 0.0 0.0 0.00 0.00 0.00 72 1008.7
20260508023531 48 0.0 0.0 0.00 0.00 0.00 74 1008.7
20260508022537 48 0.0 0.0 0.00 0.00 0.00 76 1008.5
20260508021521 48 203 0.0 1.0 0.00 0.00 0.00 74 1008.5
20260508020525 48 0.0 0.0 0.00 0.00 0.00 70 1008.4
20260508015529 48 0.0 1.0 0.00 0.00 0.00 68 1008.4
20260508014516 48 0.0 0.0 0.00 0.00 0.00 68 1008.4
20260508013527 48 180 0.0 2.0 0.00 0.00 0.00 62 1008.3
20260508012524 49 180 0.0 2.0 0.00 0.00 0.00 59 1008.1
20260508011528 50 0.0 0.0 0.00 0.00 0.00 60 1008.2
20260508010532 50 243 1.0 3.0 0.00 0.00 0.00 57 1008.3
20260508005518 51 263 3.0 6.0 0.00 0.00 0.00 55 1008.3
20260508004542 51 199 1.0 2.0 0.00 0.00 0.00 58 1008.2
20260508003526 51 0.0 0.0 0.00 0.00 0.00 54 1008.1
20260508002530 51 0.0 0.0 0.00 0.00 0.00 52 1008.0
20260508001516 51 264 1.0 2.0 0.00 0.00 0.00 52 1007.8